Wind_Speed
18 22 26 28 30 32 34 35 32 31 33 34 34 35 36 35 35 35 35 35 34 34 34 34 35 35 35 35 34 32 31 30 29 27 26 25 25 25 26 26 27 28 30 31 32 33 34 34 33 32 32 33 34 34 35 36 36 35 35 36 38 38 39 39 38 36 35 33 33 35 37 38 38 39 42 45 47 47 46 46 48 50 51 52 51
14 20 24 27 29 30 30 29 28 28 29 29 29 30 30 30 30 29 27 26 25 25 26 27 28 29 30 30 29 28 26 25 24 22 22 22 22 22 23 24 24 25 26 27 27 28 28 28 28 28 28 29 30 31 33 35 37 38 39 41 41 40 39 40 39 38 38 37 37 39 40 42 43 46 49 51 51 51 49 50 52 54 55 55 54
15 19 21 23 24 25 24 22 22 23 23 22 22 22 22 22 22 21 20 19 19 19 19 20 20 21 22 22 21 21 21 20 19 18 17 18 18 19 20 21 22 22 23 23 24 24 25 26 27 28 28 30 31 33 35 37 38 39 39 38 38 37 38 39 40 41 42 43 44 46 48 49 50 52 53 53 52 52 52 54 56 57 58 58 57
18 21 20 20 20 21 21 21 22 22 22 21 21 21 21 21 21 20 21 21 21 20 20 19 19 17 17 16 15 15 16 16 16 16 17 17 18 19 19 20 21 22 23 23 23 24 25 26 28 28 29 30 32 34 35 35 36 35 34 34 35 36 37 39 41 43 45 46 48 50 50 51 51 51 51 52 53 54 55 58 59 60 60 60 59
23 26 24 23 22 23 23 24 25 24 24 23 23 23 23 24 24 24 24 24 23 23 22 22 21 19 17 15 14 14 14 14 14 15 17 18 19 20 20 21 21 22 23 24 24 26 26 27 29 29 28 30 33 35 35 36 36 35 35 35 35 36 38 39 40 42 44 45 47 47 49 50 50 51 52 54 56 57 59 61 62 62 62 61 59
27 30 29 27 26 26 26 26 26 25 24 24 24 25 25 26 26 27 27 26 25 24 24 23 22 20 18 17 16 16 15 15 15 16 17 18 19 20 20 20 21 22 24 26 27 28 29 30 30 31 31 33 36 38 38 38 38 38 39 39 38 39 40 41 42 44 46 47 49 50 51 53 54 55 56 58 60 61 62 63 63 62 61 60 59
28 31 32 30 29 29 28 28 28 28 27 27 26 26 26 26 27 27 27 26 26 25 25 24 23 21 20 19 19 19 20 19 19 19 19 19 20 20 21 22 24 26 27 28 29 30 31 32 32 33 34 36 39 40 40 40 40 40 41 42 43 44 45 46 47 49 51 53 55 56 57 57 58 60 60 62 63 64 64 64 64 63 61 60 58
29 32 33 32 31 30 30 31 32 32 30 29 28 27 27 27 28 28 28 28 28 28 27 26 25 24 23 23 23 23 23 24 24 24 23 22 22 22 24 26 28 29 30 30 31 31 32 33 34 35 36 37 39 40 41 42 42 42 43 44 46 48 50 52 54 56 57 59 60 61 62 62 63 63 64 65 65 65 65 65 64 63 61 59 57
31 35 35 34 33 32 32 32 33 33 32 30 29 28 28 29 30 31 31 31 30 29 29 28 27 27 27 27 28 27 27 28 28 28 27 25 25 26 28 29 31 32 32 32 33 33 34 35 36 37 38 39 40 41 41 42 43 44 45 47 49 52 54 57 59 61 62 63 65 65 66 67 67 67 67 67 67 67 67 66 64 62 60 58 57
34 35 35 35 35 34 34 34 34 35 33 32 31 30 30 30 31 34 34 32 31 30 30 30 29 29 29 29 30 31 31 31 31 31 30 29 30 32 32 32 32 33 33 34 34 35 35 36 37 38 39 40 40 41 42 44 45 46 48 50 53 57 60 62 63 64 65 67 67 68 69 69 70 70 69 69 69 67 66 64 62 60 58 56 54
36 34 33 34 36 36 36 35 36 35 33 32 31 31 31 31 34 36 35 32 32 32 32 32 31 31 31 31 33 34 35 35 35 34 34 35 36 36 35 33 33 33 34 35 36 36 37 38 39 39 39 40 41 44 46 47 48 50 53 56 59 62 64 65 65 66 67 68 69 70 70 71 72 72 71 70 67 63 62 61 59 57 57 56 54
36 34 32 33 36 37 37 37 37 37 34 33 33 33 34 35 37 38 36 34 35 35 35 35 34 33 34 35 36 37 38 38 38 38 39 40 39 36 34 33 33 34 35 36 37 38 39 39 40 41 42 44 47 49 51 52 54 56 59 61 63 65 66 66 66 67 68 69 70 71 72 73 73 72 69 67 63 60 59 58 56 57 60 59 57
39 36 34 34 36 37 38 38 38 38 36 35 36 38 39 39 40 41 40 39 39 40 40 39 38 37 38 38 39 39 40 40 41 41 40 38 35 33 33 34 35 36 38 39 39 40 41 43 44 45 47 49 52 54 56 58 60 62 64 65 66 67 67 68 67 68 68 70 71 72 73 72 71 69 68 65 61 61 60 58 58 62 64 62 60
42 41 38 37 38 39 38 37 37 38 37 37 38 42 44 45 44 44 44 43 42 42 42 42 41 40 39 39 40 40 40 40 40 38 36 34 34 35 36 37 39 40 41 41 42 43 45 46 48 50 52 54 57 59 61 62 64 65 66 67 69 69 69 70 70 71 72 72 72 72 71 70 68 68 66 63 62 63 63 61 63 66 66 63 63
44 43 42 40 40 40 38 37 38 39 38 38 41 46 48 49 48 48 47 46 43 42 42 43 43 41 40 39 39 39 38 38 37 36 36 36 38 39 39 41 42 43 44 46 47 48 49 51 53 55 57 59 62 64 65 67 68 68 69 69 70 71 72 73 74 75 76 75 74 72 70 69 68 65 63 64 67 69 67 66 68 68 66 65 65
43 44 43 43 43 42 39 40 41 42 42 44 47 50 52 51 50 50 49 47 45 44 43 43 43 42 41 41 41 40 39 38 38 40 41 42 43 44 45 47 48 50 51 52 53 54 55 57 59 60 62 65 67 69 70 71 71 70 70 71 73 74 75 77 78 79 80 79 77 75 73 70 67 65 67 70 72 72 71 71 71 69 67 66 66
44 45 44 44 44 43 43 44 45 46 48 50 51 53 53 51 50 49 49 48 47 47 46 45 44 43 44 45 45 45 45 45 45 47 48 49 50 51 52 53 54 55 56 57 58 59 61 62 64 65 68 71 73 74 74 74 73 74 75 76 77 78 79 81 82 82 82 82 81 80 78 75 71 71 73 73 72 72 74 74 73 72 69 67 67
47 48 47 47 46 44 46 48 48 49 52 52 50 51 51 51 50 50 50 50 50 50 49 48 46 45 46 48 49 50 51 51 52 53 53 54 55 56 57 58 59 60 61 62 63 64 66 69 71 72 74 76 77 78 78 77 77 79 80 81 81 82 83 85 84 83 84 86 85 84 82 80 78 77 76 75 74 76 76 75 75 75 73 72 73
49 49 49 49 48 47 49 51 51 52 53 52 50 50 50 51 52 53 53 53 52 52 52 51 50 49 50 51 53 54 54 55 55 56 57 59 60 61 62 62 63 64 65 66 68 70 72 75 76 77 78 79 81 82 81 81 81 83 84 85 86 86 87 87 87 88 89 89 89 88 86 85 83 81 79 78 79 79 79 79 80 79 78 79 80
52 52 51 50 49 49 51 51 51 53 53 53 52 52 53 54 55 56 56 55 55 55 55 54 54 54 54 55 56 57 58 58 59 60 62 63 64 64 64 65 66 68 70 72 74 76 76 78 79 80 82 83 85 84 83 84 85 87 88 89 89 90 90 90 90 91 91 91 91 91 90 88 87 86 84 83 83 83 84 84 84 85 86 85 85
56 56 56 54 53 52 52 51 51 53 54 54 55 57 57 58 58 59 59 58 57 58 58 57 57 57 58 59 60 61 62 63 65 65 66 66 67 68 70 71 73 75 77 79 80 80 80 80 81 84 86 87 87 86 87 88 89 90 91 92 92 92 91 90 90 90 91 91 91 91 90 89 89 88 88 87 87 87 88 89 89 90 91 90 89
59 60 60 60 59 58 56 55 54 55 56 57 59 61 62 62 63 63 63 62 62 61 61 61 60 60 61 62 64 66 68 71 72 72 72 73 74 76 78 79 81 82 83 84 84 85 85 85 85 88 90 90 90 90 91 92 93 93 94 94 93 93 93 92 91 91 92 93 93 93 93 91 90 90 90 90 90 91 91 91 91 93 94 94 93
60 61 62 63 64 63 63 62 62 60 60 60 62 64 66 66 67 67 67 67 66 65 65 65 66 66 68 69 71 73 75 77 79 79 80 81 82 84 85 87 88 88 87 88 88 88 89 90 91 93 94 95 96 96 96 96 95 95 95 95 95 95 95 95 94 95 96 96 97 97 96 95 95 95 94 94 95 95 96 94 93 94 96 97 97
61 60 59 61 63 64 66 68 69 68 68 68 68 69 69 69 70 70 69 69 69 69 70 71 72 74 75 76 77 78 79 80 81 83 84 84 85 86 87 88 88 89 89 90 91 92 94 95 96 97 97 97 98 98 97 97 96 97 97 98 98 98 99 99 99 99 100 100 101 101 100 100 100 100 100 99 100 101 101 100 96 96 97 99 99
66 63 60 60 61 62 64 67 70 72 73 73 74 74 74 74 74 73 73 72 73 73 73 74 76 77 78 79 80 80 80 81 82 83 84 85 85 86 86 87 88 89 91 92 93 95 96 96 97 97 96 95 95 96 97 98 98 99 101 102 103 103 103 103 104 104 105 105 105 105 104 104 104 104 104 104 104 105 106 105 102 99 98 99 100
69 68 66 64 62 62 62 64 67 70 71 72 72 73 73 74 74 74 74 74 74 74 75 76 76 77 79 80 81 81 82 82 83 84 85 86 87 88 89 89 90 91 92 93 94 94 95 96 97 96 96 95 96 97 100 101 102 103 104 106 107 108 108 109 109 109 109 109 109 108 108 108 109 109 109 109 108 108 109 109 106 102 100 100 100
71 72 72 71 70 68 68 67 68 70 71 72 73 73 73 74 75 75 76 76 77 77 78 79 80 81 82 83 83 84 84 85 85 87 88 89 90 90 91 92 93 94 96 96 97 97 97 98 98 98 99 99 100 101 103 105 106 107 108 110 111 112 113 114 114 114 114 113 112 112 112 112 113 113 113 113 111 111 111 110 106 103 101 100 98
77 76 76 77 77 77 77 76 75 75 76 77 78 79 79 80 81 81 82 82 83 83 84 84 85 86 86 87 88 88 88 89 90 91 92 92 93 94 95 97 98 99 100 100 100 100 100 100 101 102 103 104 105 107 108 109 110 111 112 114 115 116 117 118 118 118 118 118 117 116 116 117 117 116 116 115 113 112 111 108 105 102 100 98 96
84 83 82 82 82 83 83 83 82 81 81 81 82 83 84 84 85 86 86 87 87 88 88 88 89 89 90 91 91 92 92 93 94 95 96 97 98 99 100 101 102 102 103 104 104 104 104 104 105 106 107 108 109 110 111 112 113 115 116 118 119 120 121 121 121 121 121 121 120 119 119 119 118 117 116 114 112 110 107 105 102 100 98 95 92
87 88 88 87 87 87 87 87 87 87 86 86 86 87 87 88 88 89 89 90 91 91 92 92 93 94 94 95 96 96 97 97 98 99 100 101 102 103 104 105 105 106 107 107 107 107 108 108 108 109 110 111 112 113 114 116 117 119 120 121 122 122 123 123 124 123 123 122 121 120 119 117 116 115 112 110 108 105 102 100 97 95 92 89 86
89 90 91 91 92 92 92 92 92 92 92 92 91 91 92 92 93 93 94 94 95 95 96 96 97 98 99 99 100 101 102 102 103 104 105 106 107 107 108 109 110 110 111 111 111 111 112 112 113 114 115 116 117 118 119 120 121 122 123 123 124 125 125 125 124 124 123 122 121 119 116 113 111 109 107 104 101 98 94 92 90 87 85 82 80
90 91 92 93 94 95 96 96 96 97 97 97 97 98 98 98 98 99 99 99 100 100 101 101 102 103 104 105 105 106 106 107 108 108 109 110 111 112 113 113 114 115 115 115 116 116 117 117 118 118 119 120 120 121 122 123 124 124 125 125 125 125 124 124 124 123 121 119 116 113 109 105 102 100 98 96 93 89 86 84 82 79 77 75 73
93 93 93 94 95 96 97 98 99 100 100 101 101 102 103 103 104 104 104 104 105 105 106 106 107 107 108 109 109 110 111 111 112 113 114 114 115 116 117 117 117 117 117 118 118 118 119 119 120 120 121 122 123 124 125 125 125 125 125 124 124 124 123 122 120 117 114 110 106 103 99 96 92 90 88 86 85 82 80 78 75 73 71 69 68
98 97 96 96 97 97 98 99 100 101 102 102 103 103 104 104 105 106 106 107 107 108 108 109 110 110 111 112 113 113 114 115 115 116 117 117 118 118 118 118 118 118 118 118 118 118 119 120 122 123 124 125 126 126 125 125 125 125 124 124 123 121 118 115 112 107 103 98 94 91 88 86 83 81 79 78 77 76 75 73 71 69 66 65 64
103 102 102 101 101 101 101 101 101 102 102 103 103 104 104 105 106 107 108 109 109 110 111 112 112 113 113 114 114 115 115 116 116 117 117 118 118 118 118 118 118 118 118 119 120 121 122 123 125 125 126 126 125 125 124 125 124 124 122 120 117 113 109 104 100 96 92 88 85 82 80 78 76 75 73 72 71 71 71 70 69 66 63 62 61
106 106 107 106 106 106 105 105 105 104 104 104 104 105 105 106 106 107 108 109 110 110 111 112 112 113 113 114 114 114 115 116 116 117 117 118 118 118 118 118 118 119 120 122 123 124 125 125 126 125 125 124 124 124 124 123 121 118 114 110 106 102 98 95 91 88 85 81 78 76 74 72 71 70 69 68 67 67 68 68 66 64 62 60 58
104 106 108 109 109 110 110 110 110 110 109 109 109 108 108 108 108 109 109 110 110 111 111 112 112 112 113 113 114 114 115 116 116 117 117 117 118 118 119 120 121 122 123 124 125 125 125 125 124 124 124 124 123 121 118 115 112 108 104 101 97 94 91 88 85 83 79 76 73 71 70 69 67 66 65 64 63 64 65 65 64 62 60 58 56
101 103 105 106 108 109 110 111 112 113 113 113 113 113 113 113 113 112 112 113 113 113 113 114 114 114 114 115 116 116 116 117 117 118 118 119 120 121 122 123 123 124 124 124 124 124 124 123 123 122 121 119 116 113 110 106 103 100 97 95 92 89 86 83 80 77 75 72 70 69 67 66 64 62 61 60 60 60 61 61 60 59 57 55 54
100 101 102 104 105 106 107 108 109 111 112 113 113 114 114 114 114 114 114 114 115 115 115 115 115 115 115 116 116 117 117 118 119 119 120 121 121 122 122 123 123 123 123 123 123 123 122 121 119 116 114 110 108 105 103 100 97 94 92 89 86 83 81 78 76 73 71 69 67 66 65 63 61 59 57 57 56 56 56 56 55 54 53 52 51
99 101 102 103 104 104 105 106 107 108 109 109 110 111 111 112 113 113 114 114 114 114 114 115 115 116 116 116 116 117 117 118 119 119 120 120 121 121 122 122 122 122 122 122 121 120 117 115 112 110 107 104 102 99 96 93 91 88 85 82 80 78 77 75 73 70 68 65 64 63 62 59 58 56 54 53 53 53 52 52 51 50 49 49 48
98 100 101 102 103 104 105 106 107 108 108 109 109 110 110 111 111 112 112 112 113 113 113 114 114 115 115 116 116 116 117 117 118 119 119 119 120 120 121 121 121 121 120 118 115 113 111 109 107 105 101 98 95 92 89 86 84 81 79 77 76 74 73 71 69 66 64 62 60 60 58 56 54 53 51 51 50 50 49 49 48 47 47 47 46
99 99 101 102 103 104 105 106 107 107 108 109 109 109 110 110 111 111 112 112 112 113 113 114 114 114 115 115 116 116 117 117 118 118 118 119 119 119 119 118 117 115 113 112 110 109 107 104 101 97 93 90 87 85 83 81 78 77 75 73 71 70 68 66 64 62 60 58 56 55 55 54 52 50 49 49 48 48 47 47 46 45 45 45 44
100 101 102 102 103 104 104 105 106 107 108 108 109 109 110 110 111 111 112 112 112 113 113 114 114 115 115 115 116 116 116 117 117 117 117 117 116 115 113 112 110 109 108 107 105 102 98 95 91 88 86 83 81 79 77 76 74 72 70 69 67 65 63 62 60 58 56 54 52 51 52 51 50 48 47 46 46 46 45 45 44 43 43 43 42
99 100 101 102 103 104 105 105 106 107 107 108 108 109 109 110 111 111 111 112 113 113 113 114 114 114 115 115 115 115 115 115 114 113 112 111 110 109 108 107 106 104 101 98 95 92 89 86 83 81 79 76 74 73 72 70 68 66 65 65 63 61 59 57 55 53 52 51 50 48 48 48 47 46 45 44 44 44 43 42 42 41 41 40 41
97 98 99 101 102 103 104 105 105 106 107 108 108 108 109 110 110 110 111 111 112 112 112 112 112 112 112 112 111 111 110 110 109 108 107 107 106 104 102 100 97 94 90 88 85 83 81 79 77 75 72 70 68 66 66 65 64 63 62 61 59 56 55 53 52 50 49 48 47 46 45 45 44 43 42 42 42 42 41 41 40 39 39 38 39
96 97 98 99 100 101 101 102 103 104 104 105 106 106 107 107 107 108 108 108 109 109 109 109 109 108 108 108 107 107 107 106 105 104 103 101 98 95 92 89 86 84 82 80 78 76 75 73 70 68 66 64 62 61 60 60 60 60 59 58 56 53 51 50 49 48 47 46 45 44 43 42 41 40 39 39 40 40 39 39 38 38 37 37 38
91 93 94 96 97 98 99 100 101 102 102 103 103 104 104 105 105 105 106 106 106 106 106 106 106 106 105 105 104 103 102 100 98 96 93 90 87 84 82 80 79 77 75 74 72 70 68 66 64 62 61 60 58 57 56 56 56 56 56 54 53 50 48 47 46 45 45 43 42 41 40 39 39 38 38 37 37 37 37 37 36 36 36 36 36
85 86 88 89 91 92 94 95 97 98 99 99 100 101 101 102 102 102 102 102 102 102 102 101 100 100 99 97 96 94 92 90 88 85 83 80 78 77 75 74 72 70 69 68 66 64 62 60 59 58 57 56 55 53 52 53 53 53 53 51 49 47 46 45 43 43 42 41 40 39 38 38 37 37 36 36 36 35 35 34 34 34 34 34 35
79 80 81 83 84 85 87 88 89 90 91 92 93 94 94 95 95 95 95 95 94 94 93 92 91 90 89 87 86 84 82 80 79 77 76 74 72 70 69 67 66 64 63 62 61 59 58 56 55 54 54 53 52 50 50 50 50 50 50 49 47 44 43 42 41 40 40 39 38 37 36 36 36 35 35 34 34 34 33 33 33 33 33 33 34
72 73 75 76 77 78 80 81 82 83 83 84 85 86 86 87 87 87 87 87 86 85 85 84 83 82 80 79 78 76 75 73 72 71 70 68 66 64 63 61 60 59 59 58 57 56 54 53 52 52 51 50 49 48 47 47 46 46 46 46 45 42 40 40 39 39 38 37 37 36 35 34 34 34 33 33 33 32 32 32 32 32 32 32 33
65 67 68 69 70 72 73 74 75 76 76 77 78 79 79 80 80 80 80 79 79 78 77 76 75 74 73 72 71 69 68 67 66 65 64 62 61 59 58 57 56 56 55 55 54 53 51 50 50 49 48 47 46 45 45 44 43 43 43 43 43 41 39 38 38 37 36 35 35 34 33 33 32 32 32 31 31 31 31 31 31 31 32 32 32
Wind_Direction
242 250 251 250 248 247 247 248 247 246 248 250 251 252 252 252 252 253 254 255 255 255 256 257 256 256 255 254 253 252 252 250 249 248 246 244 242 239 237 236 237 241 244 246 250 254 258 261 263 264 263 262 260 259 259 263 268 272 277 282 287 289 289 285 281 279 276 271 270 272 277 281 285 290 295 299 302 304 304 305 309 312 314 315 316
248 250 252 252 249 247 247 247 247 248 249 250 251 252 251 250 249 250 252 255 256 257 258 259 259 258 256 254 252 251 250 248 246 244 243 242 241 239 238 238 239 242 246 249 252 256 260 263 265 266 264 263 261 259 261 267 273 277 281 285 287 288 286 283 280 279 279 278 279 280 283 285 287 291 294 297 300 302 303 305 309 311 313 314 316
238 244 247 246 245 244 243 240 240 242 243 244 245 246 244 243 243 245 249 254 257 257 258 260 261 260 258 255 253 251 248 245 243 242 242 242 242 240 240 240 240 242 244 248 251 256 260 263 265 267 267 267 267 268 271 275 279 282 284 286 287 287 285 282 281 282 282 282 283 285 286 286 288 290 293 296 299 301 303 306 309 311 312 314 315
222 234 235 232 232 235 236 236 236 238 238 239 242 243 243 243 246 249 254 257 259 259 258 258 258 257 256 255 254 252 249 247 246 247 248 248 248 247 247 246 245 245 246 249 252 256 260 263 266 269 271 272 274 276 277 279 282 284 287 288 289 289 287 285 283 283 283 284 285 286 287 288 289 291 294 297 299 302 305 307 309 310 311 312 313
220 231 230 227 226 230 235 238 239 241 241 242 245 248 250 252 253 255 258 260 260 259 258 256 254 254 254 255 256 256 255 254 255 257 258 257 255 253 252 253 253 254 256 259 262 266 268 269 271 273 273 274 278 279 280 282 285 288 290 292 292 292 292 290 289 288 289 290 291 291 292 292 294 296 298 301 302 304 306 307 307 309 310 311 312
212 228 229 226 225 229 235 239 241 244 246 248 251 253 255 257 258 260 261 262 263 262 261 258 255 254 254 255 256 256 256 258 263 268 271 269 266 263 261 262 265 267 269 270 272 273 273 274 275 274 273 273 277 281 284 286 288 289 291 293 293 294 294 294 294 295 295 297 297 298 298 299 300 301 303 304 304 305 305 305 306 308 309 310 311
209 227 228 226 229 233 237 240 245 248 251 253 255 255 257 259 259 260 260 260 261 263 264 263 261 258 257 258 260 260 260 262 266 271 274 274 272 269 268 269 272 274 275 275 276 276 276 276 277 278 277 276 278 282 285 288 289 290 291 292 292 293 295 297 298 300 301 302 303 303 303 303 303 304 304 304 304 304 304 305 306 307 308 309 310
211 226 227 228 235 239 241 246 252 254 255 257 256 255 254 254 255 254 253 254 257 260 263 266 267 267 270 274 275 273 270 269 270 272 273 272 271 272 273 273 275 277 279 280 281 281 281 280 281 282 282 281 281 283 285 288 290 290 290 291 291 293 296 299 301 302 303 303 304 304 304 304 303 303 304 304 304 304 304 305 305 306 307 308 309
212 225 231 235 242 245 248 253 257 258 258 258 257 256 252 250 250 249 248 252 256 260 263 266 269 272 276 280 279 276 274 272 271 271 271 270 274 278 279 278 278 279 282 283 284 284 283 282 282 282 282 282 282 283 286 289 290 289 289 290 292 294 297 299 301 302 302 303 303 303 303 304 304 304 304 304 304 304 304 304 305 305 306 307 307
219 229 237 241 245 249 252 256 258 258 258 258 257 255 251 250 249 248 249 254 259 262 263 265 268 271 275 276 276 274 272 271 270 270 269 272 279 284 285 284 283 283 283 284 284 284 283 282 282 284 285 285 285 286 289 290 290 290 290 291 292 294 296 298 300 301 301 302 302 303 304 304 304 304 304 304 304 304 303 303 304 305 307 307 306
224 234 241 245 248 251 253 255 257 256 256 258 257 252 248 247 247 249 253 257 260 261 262 264 268 271 271 272 272 273 272 272 271 269 270 276 284 287 287 286 284 282 283 283 284 284 284 284 285 287 288 289 289 291 292 292 291 291 291 291 292 294 296 298 299 300 301 301 302 303 304 304 303 303 303 304 303 303 303 304 304 306 308 307 305
227 234 241 246 250 252 254 255 255 254 254 255 254 250 247 247 249 253 257 259 260 261 262 264 267 270 270 270 269 270 271 271 270 271 275 282 286 287 285 283 281 281 282 283 284 285 286 286 287 288 289 290 291 291 291 291 290 290 291 292 293 294 296 298 299 300 301 302 303 304 303 303 303 303 304 304 303 302 303 304 305 308 309 307 305
228 229 235 242 247 250 253 254 254 253 251 251 251 250 248 248 251 256 260 261 263 264 265 267 268 269 270 269 268 268 269 270 272 276 280 283 283 282 280 279 279 280 281 282 284 285 285 286 287 287 288 289 290 289 289 289 290 291 292 293 294 295 297 298 300 301 302 303 304 304 304 305 304 304 304 304 303 303 304 304 305 308 308 306 305
228 227 229 236 241 245 249 251 252 251 250 250 252 251 249 248 249 255 260 263 265 267 270 272 273 272 271 268 268 269 271 273 275 277 279 278 277 276 276 277 278 279 281 282 283 284 284 284 285 285 286 287 287 287 288 290 291 292 293 294 295 296 297 299 300 300 301 303 304 306 306 305 304 303 302 302 302 303 303 303 305 307 306 305 305
227 227 228 231 236 242 247 249 249 250 251 252 251 250 250 250 251 254 259 263 265 266 270 274 276 276 274 272 271 272 273 274 274 273 274 274 275 275 275 276 277 278 279 279 280 280 280 281 282 283 285 286 286 288 290 292 293 294 294 295 296 297 297 298 299 300 302 304 305 306 306 305 303 301 300 300 300 300 301 302 304 305 304 304 304
223 226 228 231 236 242 247 250 251 251 252 252 252 252 254 255 256 257 260 262 262 263 265 268 270 269 269 269 270 270 270 270 269 270 271 271 272 272 272 273 274 275 276 276 276 277 278 280 282 284 286 287 289 291 293 294 294 295 295 296 297 298 298 299 301 302 304 305 305 305 305 304 302 299 299 300 300 299 300 302 303 303 302 302 303
221 224 227 233 240 245 249 251 251 252 253 254 255 257 258 259 259 258 259 260 259 259 261 263 262 260 260 262 263 264 265 265 266 267 268 269 270 270 270 271 272 273 274 275 276 278 279 281 283 285 288 289 291 292 294 294 295 295 297 298 300 300 301 302 303 304 304 304 305 305 305 304 302 300 300 300 299 298 300 301 301 301 300 300 300
224 228 233 239 242 244 247 248 249 251 253 255 255 256 257 258 257 256 256 257 256 258 260 261 259 256 254 255 257 259 260 262 264 265 266 267 268 269 271 272 273 274 275 276 278 279 281 283 285 288 290 291 292 293 294 295 296 298 300 301 302 302 302 303 303 303 303 303 304 305 305 304 304 303 302 301 300 299 300 300 300 300 299 299 298
227 232 236 239 239 241 245 248 250 251 253 253 252 252 253 254 255 255 255 255 255 257 260 260 258 255 254 253 254 255 257 259 261 263 266 268 270 271 272 273 274 276 277 278 280 282 284 287 289 291 292 293 294 295 296 298 299 301 301 302 302 302 303 303 303 303 303 304 304 305 305 305 304 303 302 301 300 300 299 299 299 299 298 298 298
228 231 233 235 237 240 244 248 250 251 251 252 251 251 251 251 252 253 254 255 256 258 259 259 258 257 256 254 254 254 256 257 259 264 269 271 271 272 273 274 276 277 279 281 283 285 287 289 291 292 293 294 295 296 298 299 300 301 302 302 302 302 302 303 302 303 303 303 303 304 304 304 303 302 301 300 299 299 298 298 298 298 298 298 298
229 231 233 234 235 237 241 246 248 248 249 249 249 250 250 251 251 252 254 256 257 258 259 259 257 257 256 255 255 256 258 260 264 267 270 271 272 273 275 276 278 280 281 283 284 286 287 289 290 291 292 294 296 297 298 299 300 301 301 301 301 301 301 301 300 300 299 299 300 300 300 300 300 299 299 299 299 298 298 298 298 298 298 298 298
231 233 234 235 235 236 238 242 245 246 246 245 246 247 248 249 251 253 254 256 257 258 258 258 257 256 256 257 257 259 261 265 268 270 271 273 274 276 277 278 279 280 282 283 284 285 287 288 290 291 292 294 295 296 297 298 299 299 299 299 300 299 299 299 298 297 296 296 297 297 297 297 297 296 296 296 296 296 296 296 297 297 297 296 296
231 235 237 238 239 238 238 239 242 244 245 245 245 247 249 251 253 255 256 257 258 258 258 258 257 257 258 260 262 264 266 268 271 272 274 275 276 277 278 279 280 281 282 284 286 287 289 290 291 292 293 294 296 297 298 298 299 298 298 298 298 298 297 297 296 295 295 295 296 296 296 296 295 295 295 295 295 295 295 295 296 295 295 295 295
229 233 236 239 241 242 241 241 242 244 245 247 248 250 252 254 255 256 257 258 259 259 259 259 260 261 262 263 265 267 269 271 273 275 276 277 278 279 280 281 283 284 286 287 289 290 291 292 293 294 296 297 298 299 299 299 299 298 298 297 297 297 296 296 295 295 295 295 295 295 295 295 295 295 295 295 295 295 295 295 295 294 293 293 293
228 230 232 234 236 239 241 243 244 245 246 248 250 252 254 256 257 258 259 260 260 261 262 262 263 263 264 265 266 268 269 271 273 275 277 278 279 280 282 283 285 287 288 289 291 292 294 295 296 297 298 298 298 298 298 298 297 296 296 296 296 296 295 295 295 295 295 295 295 295 295 295 295 295 295 295 295 295 295 295 295 294 293 293 293
228 230 231 231 231 234 237 239 242 244 247 249 251 253 255 256 258 259 260 260 260 261 262 263 264 265 266 267 268 269 270 271 273 274 275 277 278 280 282 284 286 287 288 290 292 293 294 295 296 296 296 296 295 295 295 295 294 294 294 294 294 295 295 294 294 294 294 294 295 295 295 295 295 295 295 295 295 295 294 294 294 294 293 292 291
228 230 231 232 231 232 234 236 238 241 243 246 248 250 252 253 254 256 257 258 259 260 260 262 263 264 266 267 269 270 272 273 274 275 276 277 279 281 282 284 285 286 288 289 290 291 292 293 293 293 293 293 292 292 292 292 292 292 293 293 293 293 294 294 294 294 295 295 295 296 296 296 296 296 295 295 295 294 293 293 293 293 292 291 290
229 230 232 233 233 234 235 236 238 239 241 244 246 248 250 251 253 254 255 257 258 259 261 262 264 265 266 268 269 270 272 273 274 275 276 278 279 280 282 283 284 285 287 288 289 290 290 291 291 291 291 291 291 291 291 291 291 291 292 292 292 292 293 293 294 294 295 296 296 296 296 296 295 295 294 294 294 293 292 292 292 291 290 289 289
230 231 232 233 234 235 236 238 239 241 242 244 246 247 249 251 252 254 255 257 258 260 261 263 264 266 267 268 269 270 271 273 274 275 276 278 279 280 281 282 284 285 286 287 288 289 289 289 289 289 289 289 290 290 290 290 290 290 290 291 291 292 292 293 293 294 294 295 295 295 294 294 293 293 293 292 292 291 291 291 290 290 289 288 288
232 233 234 234 235 236 237 239 240 242 244 245 247 248 249 251 252 254 255 257 258 260 261 263 264 265 267 268 269 271 272 273 274 276 277 278 279 280 281 282 283 284 285 286 287 288 288 288 288 288 288 288 288 288 288 288 288 289 289 290 290 291 292 292 293 293 293 294 293 293 293 292 292 292 291 291 290 290 289 289 288 288 287 287 286
235 236 236 237 237 238 239 240 241 243 244 246 248 249 250 252 253 254 256 257 258 260 261 262 264 265 266 268 269 270 272 273 274 275 276 277 278 280 281 282 283 284 285 285 286 286 286 286 286 286 286 286 286 287 287 287 288 288 289 289 290 291 291 292 292 293 293 293 293 292 292 291 291 291 290 289 289 288 288 288 287 286 286 285 284
236 237 239 240 240 241 241 242 243 244 245 246 247 249 250 252 253 255 256 257 259 260 261 263 264 266 267 268 269 270 272 273 274 275 276 277 278 280 281 282 283 283 284 284 285 285 285 285 286 286 286 286 286 286 287 287 288 288 289 290 290 291 292 292 292 292 292 292 292 291 291 291 290 290 289 289 288 288 287 286 286 285 284 284 284
236 238 239 241 242 243 244 245 245 246 247 247 248 250 251 252 254 255 256 258 259 261 262 264 265 266 267 269 270 271 272 273 274 275 277 278 279 280 280 281 282 283 283 284 284 285 285 285 285 285 286 286 286 286 287 288 289 289 290 291 291 292 292 292 292 292 291 291 291 291 290 290 290 289 289 288 288 287 287 286 285 284 284 284 283
237 238 240 241 243 244 245 246 247 248 249 250 251 252 253 255 256 258 259 260 261 262 263 264 265 266 268 269 270 272 273 274 275 276 277 278 278 279 280 281 281 282 283 283 284 284 284 284 284 285 285 286 287 287 288 289 290 291 292 292 292 292 292 292 292 291 291 291 291 291 291 290 290 289 288 287 287 287 287 286 285 284 284 283 282
239 240 241 242 243 245 246 247 249 250 251 253 254 255 256 257 258 260 261 262 263 264 265 266 267 268 269 270 271 272 273 274 275 276 277 277 278 279 279 280 281 281 282 282 282 282 283 283 284 285 286 287 288 289 290 291 292 292 292 292 292 292 292 292 292 292 292 292 292 292 291 290 290 289 288 287 287 287 287 286 285 285 284 283 281
242 242 243 244 245 246 247 248 249 250 252 253 254 255 257 258 259 260 261 262 264 265 266 267 268 269 270 271 272 273 273 274 275 276 276 277 278 278 279 280 280 280 281 281 282 282 283 284 285 286 287 289 290 291 291 292 292 292 292 292 293 293 293 293 293 293 293 293 293 292 291 290 289 289 288 288 287 287 286 285 285 285 284 283 282
244 245 245 246 247 247 248 249 250 251 252 253 254 255 257 258 259 260 262 263 264 265 266 267 268 269 270 271 272 272 273 274 275 275 276 277 277 278 278 279 279 280 281 281 282 283 284 286 287 288 289 290 291 291 292 292 292 292 293 293 294 294 294 294 294 294 294 294 293 292 291 290 290 289 288 288 287 286 284 284 284 283 283 282 281
246 246 247 248 248 249 250 251 252 252 253 254 255 256 257 258 260 261 262 263 264 265 266 267 268 269 270 271 272 273 273 274 275 275 276 276 277 278 278 279 280 281 282 283 283 285 286 287 288 289 290 291 291 292 292 293 293 294 294 294 294 294 294 294 294 294 294 294 294 293 292 291 290 289 288 287 285 283 282 282 281 281 281 280 279
246 247 248 249 249 250 251 252 253 254 254 255 256 257 258 259 260 261 262 263 264 265 266 267 268 269 270 271 272 272 273 274 275 275 276 277 277 278 279 280 281 282 283 284 285 286 287 288 289 290 291 291 292 292 293 293 293 293 293 293 293 294 294 294 294 294 294 294 293 292 290 289 289 288 287 285 284 282 281 280 279 279 278 277 277
246 247 248 249 250 251 252 252 253 254 255 256 257 257 258 259 260 261 262 263 264 265 266 267 268 269 269 270 271 272 273 274 274 275 276 277 278 279 280 281 282 283 284 285 286 287 288 289 290 291 292 292 292 292 292 292 292 292 292 293 293 293 293 293 293 293 292 292 291 289 288 288 287 286 285 284 283 281 280 279 278 278 276 275 275
247 247 248 249 250 250 251 252 253 254 255 256 257 258 258 259 260 261 262 263 264 265 265 266 267 268 269 270 271 271 272 273 274 275 276 277 278 279 280 281 282 283 284 286 287 289 290 290 291 291 291 291 291 291 291 291 291 292 292 292 292 292 292 291 291 291 291 290 289 288 287 287 286 286 285 284 283 281 280 279 278 277 275 274 273
247 248 248 249 249 250 251 252 253 254 254 255 256 257 258 259 260 261 262 262 263 264 265 266 267 268 269 269 270 271 272 273 274 275 276 277 278 279 280 281 283 284 286 287 288 289 289 289 289 290 290 290 290 291 291 291 291 291 291 291 291 290 290 290 291 290 290 289 288 287 287 287 287 286 285 284 283 281 280 278 277 276 274 273 273
248 248 249 249 250 250 251 252 253 253 254 255 256 257 257 258 259 260 261 262 263 264 265 266 267 267 268 269 270 271 272 273 274 275 276 277 278 280 281 283 284 286 287 287 287 287 287 288 288 288 289 289 290 290 290 290 290 291 290 290 290 290 290 290 290 290 289 288 287 287 287 287 287 286 285 283 282 280 279 278 277 276 274 274 272
249 249 250 250 251 251 252 252 253 254 255 255 256 257 258 259 259 260 261 262 263 264 265 266 267 268 269 269 270 272 273 274 275 276 277 278 280 281 283 284 285 285 285 285 285 285 286 286 287 287 288 288 289 289 289 289 290 290 290 290 290 290 290 290 290 290 289 289 288 287 286 286 285 285 283 282 280 279 278 277 275 274 273 272 270
250 250 251 251 252 252 253 253 254 255 255 256 257 258 258 259 260 261 262 263 264 265 265 266 267 268 269 270 272 273 274 275 276 277 279 280 281 282 283 283 283 283 283 284 284 285 285 286 286 287 287 287 288 289 289 290 290 290 290 290 290 290 290 290 290 290 289 289 288 287 286 285 284 283 282 280 279 278 276 275 273 272 271 269 268
250 251 251 252 252 253 254 254 255 255 256 257 258 258 259 260 261 262 263 264 265 266 267 268 269 270 271 272 273 274 275 276 277 278 279 280 280 281 281 282 282 282 282 283 283 284 284 285 286 286 287 288 288 289 289 290 290 290 290 290 290 291 291 291 291 290 289 288 288 287 286 285 283 282 280 278 277 276 274 273 272 270 268 266 265
251 251 251 252 252 253 254 255 255 256 257 258 258 259 260 261 262 263 264 265 266 266 267 268 269 270 271 272 273 274 275 275 276 277 278 279 279 280 280 280 281 281 282 282 283 283 284 285 286 287 288 288 289 289 290 290 290 290 290 290 291 291 291 291 291 290 289 289 288 287 286 285 283 281 279 277 275 274 272 271 270 268 266 265 264
252 252 252 253 253 253 254 255 255 256 257 258 258 259 260 261 262 262 263 264 265 266 267 268 269 270 271 271 272 273 274 275 276 277 278 278 278 278 279 279 280 281 281 282 283 283 285 286 287 288 289 289 290 290 291 291 290 290 290 290 291 291 291 291 290 290 290 289 288 287 286 284 282 280 278 276 273 272 270 269 267 266 265 264 263
252 253 253 253 254 254 255 255 256 256 257 258 258 259 260 261 261 262 263 264 265 266 267 268 269 270 271 272 272 273 274 275 276 276 277 277 277 278 278 279 280 281 282 282 283 284 286 287 288 288 289 290 291 291 291 291 290 290 290 290 291 291 291 291 290 290 289 289 288 287 285 283 281 279 277 274 272 271 269 267 265 265 264 263 262
253 254 254 254 255 255 256 256 257 257 258 258 259 260 260 261 262 263 264 264 265 266 267 268 269 270 271 272 272 273 274 274 275 275 275 276 277 278 279 280 281 282 282 283 284 285 287 288 289 289 290 291 292 292 292 291 290 290 290 290 291 291 291 291 290 290 289 288 287 286 284 282 280 278 276 273 272 270 268 266 265 264 263 262 261
253 254 254 254 255 255 256 256 257 258 258 259 259 260 261 261 262 263 264 264 265 266 267 268 268 269 270 271 271 272 272 273 274 274 275 277 278 279 280 281 281 282 283 284 285 286 287 288 289 290 291 291 291 292 291 290 290 290 290 290 291 291 291 291 290 290 289 288 286 285 283 281 279 277 275 273 271 269 268 267 266 264 263 262 261
Height
10608 10610 10611 10612 10614 10614 10615 10616 10618 10618 10618 10619 10619 10619 10620 10621 10622 10623 10624 10624 10625 10626 10627 10627 10628 10629 10629 10630 10630 10631 10632 10632 10633 10635 10637 10638 10640 10642 10643 10645 10646 10646 10646 10646 10647 10646 10645 10645 10646 10647 10647 10646 10646 10646 10646 10645 10645 10644 10642 10641 10640 10639 10638 10636 10634 10633 10632 10631 10630 10628 10627 10625 10623 10621 10620 10618 10616 10615 10613 10611 10608 10606 10603 10601 10598
10607 10609 10609 10610 10611 10611 10612 10612 10613 10613 10614 10615 10615 10615 10616 10617 10618 10619 10619 10620 10621 10622 10623 10623 10624 10624 10625 10626 10626 10627 10628 10628 10629 10631 10633 10634 10636 10638 10639 10641 10642 10643 10643 10643 10643 10642 10642 10642 10642 10642 10643 10643 10643 10643 10642 10641 10641 10640 10639 10637 10635 10634 10633 10632 10630 10629 10628 10627 10626 10624 10623 10621 10619 10617 10615 10613 10611 10609 10607 10605 10602 10600 10597 10595 10592
10606 10608 10608 10608 10609 10609 10609 10609 10610 10610 10611 10611 10612 10612 10613 10613 10614 10615 10615 10616 10617 10618 10619 10620 10620 10621 10621 10622 10623 10624 10625 10626 10626 10628 10629 10631 10632 10634 10636 10637 10638 10639 10640 10640 10640 10640 10639 10639 10639 10639 10640 10639 10639 10639 10638 10638 10637 10636 10634 10632 10630 10629 10628 10627 10626 10625 10624 10623 10621 10620 10618 10617 10615 10613 10611 10608 10606 10604 10601 10598 10596 10593 10591 10588 10586
10605 10606 10606 10606 10606 10607 10607 10607 10607 10607 10607 10608 10609 10609 10610 10610 10611 10611 10612 10613 10614 10615 10616 10617 10618 10618 10618 10619 10620 10621 10622 10623 10624 10625 10626 10628 10629 10631 10632 10633 10635 10636 10636 10637 10637 10637 10637 10636 10636 10636 10637 10635 10635 10634 10634 10633 10632 10631 10629 10628 10626 10624 10623 10622 10621 10619 10618 10617 10616 10615 10613 10611 10610 10608 10606 10603 10601 10598 10596 10592 10590 10587 10585 10582 10579
10602 10603 10603 10603 10603 10603 10603 10603 10604 10604 10604 10605 10606 10606 10606 10607 10607 10608 10608 10609 10610 10612 10613 10614 10615 10615 10616 10617 10617 10619 10620 10621 10622 10623 10624 10625 10626 10627 10629 10630 10631 10632 10633 10633 10634 10634 10634 10634 10633 10633 10634 10632 10630 10629 10629 10629 10627 10626 10624 10623 10621 10620 10618 10617 10616 10614 10613 10612 10610 10609 10608 10606 10604 10602 10600 10598 10595 10593 10590 10587 10584 10582 10579 10576 10573
10595 10598 10599 10600 10600 10599 10599 10599 10600 10600 10601 10602 10602 10602 10603 10604 10604 10605 10605 10606 10607 10608 10609 10610 10611 10612 10613 10614 10615 10616 10618 10619 10619 10620 10621 10622 10622 10624 10625 10626 10627 10628 10629 10629 10630 10630 10630 10630 10629 10630 10630 10628 10626 10625 10624 10623 10622 10620 10618 10617 10616 10614 10613 10611 10610 10609 10607 10606 10605 10603 10601 10599 10597 10595 10594 10591 10589 10586 10584 10580 10578 10576 10573 10570 10567
10588 10593 10595 10596 10595 10595 10595 10595 10595 10596 10597 10598 10598 10598 10599 10600 10600 10601 10601 10602 10603 10604 10605 10607 10608 10609 10610 10611 10612 10613 10615 10616 10616 10617 10618 10618 10619 10620 10621 10622 10623 10623 10624 10624 10624 10625 10624 10624 10624 10624 10624 10623 10621 10619 10618 10617 10615 10614 10612 10611 10610 10608 10606 10605 10604 10602 10600 10599 10597 10595 10593 10592 10590 10588 10587 10585 10582 10579 10577 10573 10571 10569 10566 10564 10562
10584 10589 10591 10592 10591 10590 10590 10591 10591 10592 10593 10594 10594 10594 10595 10595 10596 10597 10597 10598 10599 10600 10601 10603 10604 10605 10606 10607 10609 10610 10611 10612 10612 10613 10614 10614 10615 10616 10617 10617 10618 10618 10618 10618 10618 10618 10618 10618 10618 10618 10617 10616 10615 10613 10612 10610 10609 10607 10605 10604 10602 10601 10599 10598 10596 10595 10593 10591 10589 10588 10586 10584 10582 10581 10579 10577 10574 10571 10569 10566 10563 10562 10559 10557 10555
10582 10586 10587 10587 10586 10586 10586 10587 10587 10588 10589 10590 10590 10590 10591 10591 10592 10592 10593 10594 10595 10596 10597 10599 10600 10601 10602 10603 10604 10605 10606 10607 10608 10608 10609 10609 10610 10611 10611 10612 10612 10612 10612 10612 10612 10612 10611 10611 10611 10611 10610 10609 10608 10607 10605 10604 10602 10600 10599 10597 10595 10593 10592 10591 10589 10588 10586 10584 10582 10580 10578 10576 10574 10572 10570 10568 10566 10563 10560 10558 10556 10554 10552 10550 10548
10580 10581 10582 10582 10582 10582 10583 10583 10583 10583 10584 10585 10586 10586 10587 10587 10587 10587 10588 10590 10591 10592 10593 10595 10596 10597 10597 10598 10599 10600 10601 10602 10603 10603 10604 10604 10605 10605 10605 10605 10606 10606 10605 10605 10605 10605 10605 10604 10604 10604 10603 10602 10601 10600 10598 10597 10596 10594 10592 10590 10589 10587 10585 10584 10582 10581 10578 10576 10574 10572 10570 10567 10565 10563 10561 10559 10557 10555 10552 10549 10548 10546 10544 10543 10541
10576 10577 10578 10578 10578 10578 10579 10579 10579 10578 10579 10580 10581 10581 10582 10583 10582 10581 10583 10585 10586 10587 10589 10590 10591 10592 10593 10593 10594 10595 10596 10596 10597 10598 10598 10599 10599 10599 10599 10599 10599 10598 10598 10598 10598 10598 10598 10597 10597 10596 10596 10595 10594 10593 10592 10591 10590 10588 10586 10584 10583 10581 10579 10577 10575 10573 10571 10568 10566 10564 10562 10559 10557 10555 10553 10550 10548 10546 10543 10541 10538 10537 10536 10535 10533
10574 10574 10574 10573 10573 10573 10574 10575 10575 10574 10574 10575 10575 10576 10577 10578 10577 10577 10579 10581 10582 10582 10584 10585 10586 10587 10587 10588 10589 10589 10590 10591 10591 10592 10592 10592 10592 10592 10592 10592 10592 10592 10591 10592 10591 10591 10591 10590 10590 10590 10589 10588 10587 10586 10585 10584 10583 10582 10580 10578 10577 10574 10572 10570 10568 10566 10563 10560 10558 10556 10555 10552 10548 10546 10544 10542 10539 10537 10535 10533 10530 10528 10527 10526 10524
10571 10572 10571 10570 10569 10569 10569 10570 10571 10571 10571 10571 10571 10571 10572 10573 10573 10572 10574 10576 10577 10577 10578 10579 10581 10582 10582 10582 10583 10583 10584 10585 10585 10585 10585 10585 10585 10585 10585 10586 10586 10585 10585 10585 10585 10585 10585 10584 10584 10583 10583 10582 10581 10580 10579 10578 10576 10575 10573 10571 10569 10566 10564 10562 10560 10558 10556 10554 10552 10549 10546 10543 10540 10536 10534 10533 10531 10528 10527 10525 10522 10520 10519 10517 10516
10567 10568 10568 10567 10566 10564 10565 10566 10566 10566 10567 10567 10567 10566 10566 10567 10568 10568 10569 10570 10571 10571 10571 10571 10573 10575 10576 10576 10577 10577 10578 10578 10578 10578 10578 10578 10579 10579 10579 10579 10579 10579 10579 10580 10579 10579 10579 10578 10578 10578 10577 10576 10575 10573 10572 10571 10569 10567 10565 10563 10560 10558 10556 10553 10551 10550 10549 10548 10546 10542 10539 10536 10532 10529 10526 10524 10522 10520 10519 10516 10514 10513 10511 10509 10508
10561 10562 10563 10563 10561 10560 10561 10562 10561 10562 10563 10564 10563 10561 10560 10562 10563 10564 10564 10565 10566 10566 10566 10565 10566 10566 10568 10569 10569 10570 10570 10571 10571 10571 10572 10572 10572 10573 10573 10573 10573 10573 10573 10573 10573 10573 10573 10572 10572 10572 10571 10569 10567 10566 10565 10563 10561 10559 10557 10555 10552 10550 10547 10545 10543 10541 10540 10539 10537 10534 10532 10529 10525 10522 10519 10516 10514 10511 10510 10509 10507 10505 10502 10501 10500
10555 10556 10557 10558 10556 10556 10557 10556 10556 10558 10558 10558 10556 10554 10555 10557 10558 10559 10560 10560 10561 10562 10562 10562 10561 10561 10562 10563 10563 10564 10565 10565 10566 10566 10566 10566 10567 10567 10567 10567 10567 10567 10567 10567 10567 10566 10566 10565 10565 10565 10564 10561 10559 10558 10557 10555 10553 10550 10548 10546 10544 10542 10539 10536 10533 10531 10529 10528 10527 10525 10523 10521 10518 10515 10512 10509 10505 10502 10501 10501 10499 10497 10495 10494 10492
10549 10550 10552 10552 10551 10552 10552 10550 10552 10552 10550 10551 10551 10550 10550 10552 10554 10554 10555 10555 10555 10556 10556 10557 10558 10558 10558 10559 10559 10559 10559 10560 10560 10560 10560 10561 10560 10560 10561 10561 10560 10560 10560 10559 10559 10559 10558 10557 10557 10557 10555 10552 10549 10549 10547 10545 10543 10541 10539 10537 10534 10531 10527 10524 10522 10520 10517 10515 10515 10514 10513 10511 10509 10507 10504 10501 10498 10494 10493 10493 10490 10488 10488 10487 10485
10544 10545 10546 10546 10546 10547 10546 10545 10546 10546 10543 10545 10547 10545 10545 10546 10548 10548 10549 10549 10550 10550 10551 10552 10552 10553 10553 10554 10554 10554 10554 10554 10554 10553 10554 10554 10553 10553 10554 10554 10553 10552 10552 10551 10551 10550 10549 10547 10547 10548 10545 10542 10539 10538 10536 10535 10533 10530 10527 10525 10523 10519 10516 10513 10511 10509 10506 10503 10502 10502 10501 10499 10497 10496 10493 10490 10488 10485 10484 10483 10481 10479 10479 10478 10476
10539 10540 10540 10540 10541 10542 10540 10539 10540 10540 10538 10539 10541 10541 10541 10541 10541 10542 10543 10543 10544 10545 10545 10546 10546 10547 10547 10548 10547 10547 10547 10547 10546 10546 10546 10546 10546 10546 10546 10545 10544 10543 10543 10542 10541 10541 10540 10538 10536 10536 10534 10530 10527 10526 10524 10522 10521 10518 10516 10514 10511 10509 10506 10503 10500 10497 10494 10491 10488 10487 10487 10487 10485 10483 10482 10479 10476 10474 10472 10472 10470 10468 10468 10468 10465
10532 10533 10533 10534 10535 10536 10535 10534 10535 10534 10534 10535 10536 10536 10536 10536 10535 10535 10536 10537 10539 10539 10540 10540 10540 10540 10541 10541 10540 10540 10540 10539 10539 10539 10539 10539 10538 10538 10537 10537 10536 10534 10534 10533 10532 10531 10531 10529 10526 10523 10521 10519 10516 10514 10513 10511 10509 10507 10504 10502 10500 10497 10495 10492 10488 10484 10482 10479 10476 10474 10474 10474 10472 10471 10470 10468 10466 10464 10461 10460 10458 10455 10454 10454 10453
10525 10525 10527 10528 10529 10530 10530 10530 10529 10528 10528 10530 10530 10529 10529 10529 10529 10529 10531 10532 10533 10533 10533 10534 10535 10534 10534 10534 10533 10533 10533 10532 10531 10532 10532 10531 10530 10530 10529 10528 10527 10526 10524 10523 10522 10521 10521 10522 10520 10513 10509 10509 10508 10505 10503 10501 10499 10496 10493 10490 10488 10486 10484 10483 10479 10475 10472 10471 10469 10467 10465 10464 10462 10460 10458 10457 10455 10453 10450 10448 10447 10443 10440 10439 10439
10517 10518 10520 10521 10522 10523 10524 10524 10523 10522 10522 10523 10523 10522 10522 10522 10522 10523 10525 10526 10527 10527 10527 10527 10528 10528 10527 10526 10526 10526 10525 10524 10523 10524 10525 10523 10522 10521 10520 10518 10518 10517 10516 10514 10513 10512 10511 10512 10512 10505 10499 10499 10499 10497 10495 10493 10490 10487 10483 10480 10478 10476 10474 10473 10471 10468 10465 10462 10461 10459 10458 10456 10454 10451 10449 10448 10446 10443 10441 10440 10439 10433 10427 10426 10426
10511 10511 10513 10513 10514 10516 10518 10518 10516 10516 10517 10516 10516 10515 10515 10516 10516 10517 10518 10519 10520 10520 10520 10520 10520 10520 10519 10519 10518 10518 10517 10516 10514 10515 10515 10514 10513 10512 10510 10508 10507 10507 10506 10504 10503 10502 10500 10500 10499 10495 10490 10489 10487 10485 10483 10481 10479 10476 10473 10470 10467 10465 10463 10462 10460 10457 10455 10452 10450 10448 10447 10444 10442 10440 10439 10437 10435 10431 10429 10431 10433 10427 10418 10414 10414
10503 10505 10506 10506 10507 10509 10511 10510 10510 10510 10510 10509 10509 10509 10509 10509 10509 10509 10511 10511 10512 10512 10512 10512 10512 10512 10512 10511 10511 10510 10510 10508 10506 10505 10504 10504 10503 10501 10500 10498 10496 10495 10494 10492 10491 10490 10488 10486 10484 10482 10479 10476 10473 10470 10468 10466 10464 10462 10460 10457 10455 10453 10451 10449 10447 10444 10442 10441 10438 10436 10434 10432 10429 10426 10425 10423 10422 10418 10413 10414 10420 10419 10411 10405 10403
10496 10497 10499 10499 10500 10501 10502 10503 10502 10502 10502 10502 10501 10502 10502 10501 10500 10501 10502 10503 10503 10503 10503 10503 10503 10503 10503 10502 10502 10502 10502 10500 10499 10497 10495 10493 10492 10491 10490 10489 10487 10485 10483 10481 10479 10476 10473 10471 10468 10467 10466 10463 10459 10457 10455 10453 10451 10449 10447 10444 10442 10441 10439 10436 10434 10431 10429 10427 10425 10423 10421 10419 10416 10413 10411 10409 10407 10405 10399 10396 10400 10403 10401 10396 10391
10489 10490 10491 10492 10492 10493 10494 10495 10495 10495 10495 10495 10494 10494 10494 10494 10493 10493 10493 10493 10494 10494 10494 10493 10493 10493 10493 10492 10492 10492 10492 10493 10492 10489 10486 10485 10484 10482 10481 10480 10478 10476 10474 10472 10471 10467 10463 10460 10458 10456 10455 10453 10451 10448 10445 10443 10441 10438 10435 10431 10429 10427 10425 10422 10420 10418 10415 10413 10412 10410 10408 10405 10402 10399 10396 10394 10393 10390 10384 10380 10382 10385 10385 10382 10377
10481 10482 10483 10483 10484 10485 10486 10486 10487 10487 10487 10487 10487 10486 10486 10486 10485 10485 10484 10484 10485 10485 10484 10484 10484 10484 10483 10483 10482 10481 10482 10483 10481 10479 10477 10476 10475 10474 10472 10471 10469 10467 10465 10464 10463 10460 10457 10454 10451 10448 10447 10445 10442 10440 10437 10433 10430 10427 10423 10419 10416 10413 10410 10407 10404 10402 10399 10398 10397 10396 10394 10390 10387 10384 10380 10378 10377 10374 10367 10365 10368 10369 10367 10364 10362
10472 10473 10474 10475 10475 10476 10477 10478 10478 10478 10478 10478 10478 10478 10478 10478 10477 10476 10476 10476 10475 10475 10475 10475 10474 10474 10474 10473 10473 10472 10473 10473 10471 10469 10468 10468 10466 10465 10464 10462 10460 10458 10456 10455 10453 10451 10449 10446 10442 10439 10437 10434 10431 10428 10425 10421 10418 10415 10411 10407 10403 10399 10396 10392 10389 10386 10383 10381 10380 10380 10378 10374 10370 10367 10365 10362 10360 10357 10352 10350 10352 10351 10348 10347 10346
10463 10464 10465 10466 10467 10467 10468 10469 10469 10469 10469 10469 10469 10470 10469 10469 10468 10468 10467 10467 10466 10466 10466 10465 10464 10464 10464 10463 10462 10462 10463 10463 10461 10460 10459 10458 10456 10455 10454 10452 10450 10448 10447 10445 10442 10440 10438 10435 10432 10428 10425 10422 10419 10415 10412 10408 10405 10401 10398 10394 10390 10386 10382 10379 10376 10373 10371 10369 10367 10367 10365 10361 10355 10352 10350 10347 10343 10341 10339 10337 10335 10332 10330 10330 10330
10454 10454 10455 10456 10457 10458 10459 10460 10460 10460 10460 10460 10460 10460 10460 10460 10459 10459 10458 10458 10457 10457 10456 10456 10455 10454 10454 10453 10453 10452 10452 10452 10451 10450 10449 10447 10446 10444 10443 10441 10440 10438 10436 10434 10431 10429 10426 10424 10421 10417 10414 10411 10408 10404 10400 10396 10393 10389 10385 10381 10377 10373 10369 10365 10362 10360 10357 10355 10353 10351 10349 10347 10341 10336 10333 10330 10326 10324 10324 10322 10318 10317 10314 10313 10313
10444 10445 10446 10447 10448 10448 10449 10450 10450 10451 10451 10451 10451 10451 10450 10450 10449 10449 10449 10448 10447 10447 10446 10446 10445 10444 10444 10444 10443 10442 10442 10442 10441 10440 10439 10437 10436 10433 10431 10430 10428 10426 10423 10421 10420 10418 10415 10412 10409 10405 10402 10399 10395 10392 10388 10384 10380 10377 10372 10368 10364 10360 10357 10353 10349 10346 10343 10339 10336 10333 10330 10329 10325 10319 10315 10312 10308 10308 10308 10305 10302 10301 10300 10298 10298
10434 10434 10435 10437 10438 10438 10439 10439 10440 10441 10441 10441 10441 10441 10440 10440 10439 10439 10439 10438 10437 10437 10437 10436 10435 10435 10434 10433 10433 10433 10432 10431 10430 10429 10428 10426 10425 10422 10420 10418 10416 10414 10411 10409 10407 10404 10402 10399 10395 10391 10387 10384 10380 10377 10373 10370 10367 10363 10359 10356 10352 10348 10344 10340 10336 10332 10328 10324 10320 10316 10312 10311 10308 10304 10299 10295 10291 10291 10291 10288 10286 10286 10285 10284 10284
10424 10424 10425 10426 10427 10428 10428 10429 10430 10430 10431 10431 10431 10431 10430 10430 10429 10429 10429 10429 10428 10428 10427 10427 10426 10425 10424 10423 10422 10422 10421 10420 10419 10417 10416 10414 10412 10410 10408 10405 10403 10401 10399 10396 10393 10389 10386 10382 10379 10375 10372 10369 10365 10362 10358 10355 10352 10348 10344 10341 10337 10333 10328 10324 10320 10316 10312 10308 10305 10300 10296 10294 10292 10288 10284 10280 10277 10275 10275 10274 10272 10272 10272 10272 10272
10414 10414 10415 10416 10416 10417 10418 10418 10419 10420 10420 10421 10421 10422 10422 10421 10420 10419 10419 10419 10419 10418 10417 10417 10416 10415 10414 10413 10412 10411 10410 10408 10407 10405 10403 10401 10399 10397 10395 10393 10391 10388 10385 10382 10379 10375 10371 10367 10364 10360 10357 10354 10350 10347 10344 10340 10336 10332 10327 10323 10319 10315 10311 10306 10302 10298 10295 10292 10290 10286 10282 10279 10276 10273 10270 10268 10265 10262 10261 10260 10259 10259 10259 10260 10259
10403 10404 10405 10405 10406 10407 10407 10408 10409 10410 10411 10411 10412 10412 10412 10412 10411 10410 10408 10407 10406 10406 10406 10405 10404 10404 10403 10402 10401 10400 10398 10396 10394 10392 10390 10388 10386 10384 10382 10380 10377 10374 10371 10368 10365 10362 10358 10354 10351 10347 10343 10340 10337 10333 10329 10325 10320 10315 10310 10306 10302 10299 10294 10289 10285 10281 10279 10276 10274 10271 10268 10265 10262 10259 10257 10255 10253 10251 10249 10247 10246 10246 10247 10247 10247
10392 10392 10393 10394 10395 10395 10396 10397 10398 10398 10399 10400 10401 10401 10401 10400 10400 10399 10397 10395 10394 10394 10393 10392 10391 10391 10391 10389 10388 10386 10385 10383 10381 10378 10376 10374 10372 10370 10368 10366 10363 10360 10357 10354 10351 10347 10344 10340 10337 10333 10330 10326 10323 10319 10314 10310 10305 10300 10295 10290 10286 10282 10278 10274 10270 10267 10264 10262 10260 10257 10254 10252 10250 10248 10245 10244 10243 10240 10237 10235 10235 10235 10235 10236 10237
10379 10380 10381 10381 10382 10383 10384 10384 10385 10386 10387 10387 10388 10388 10388 10388 10387 10387 10385 10384 10383 10382 10381 10380 10379 10378 10377 10376 10375 10373 10371 10369 10367 10365 10362 10360 10358 10357 10355 10352 10349 10346 10343 10340 10337 10333 10330 10327 10323 10320 10316 10312 10308 10304 10299 10294 10289 10285 10280 10275 10271 10267 10264 10260 10257 10253 10251 10249 10248 10245 10242 10239 10238 10237 10235 10234 10232 10230 10228 10226 10225 10225 10225 10227 10227
10367 10368 10368 10369 10370 10371 10371 10371 10372 10373 10373 10374 10374 10375 10375 10375 10375 10374 10373 10372 10370 10370 10369 10368 10367 10366 10364 10362 10360 10359 10357 10355 10353 10351 10349 10346 10344 10342 10340 10338 10335 10332 10329 10326 10323 10320 10317 10314 10310 10307 10303 10298 10294 10289 10284 10280 10275 10270 10266 10262 10258 10254 10250 10247 10245 10242 10239 10237 10236 10233 10231 10229 10227 10227 10226 10224 10222 10221 10219 10217 10217 10217 10217 10217 10218
10354 10355 10355 10356 10357 10358 10358 10358 10358 10359 10359 10360 10360 10361 10362 10362 10361 10361 10360 10359 10358 10357 10356 10355 10354 10353 10351 10349 10347 10345 10343 10341 10339 10337 10335 10332 10330 10328 10327 10324 10321 10319 10316 10313 10310 10307 10304 10300 10297 10293 10288 10284 10280 10275 10271 10266 10262 10258 10254 10250 10246 10242 10239 10236 10234 10231 10230 10228 10226 10223 10221 10219 10218 10217 10216 10215 10213 10211 10210 10209 10208 10209 10209 10209 10209
10341 10342 10343 10344 10344 10345 10344 10344 10345 10345 10346 10346 10346 10347 10348 10348 10347 10347 10346 10346 10345 10345 10343 10342 10340 10339 10338 10337 10335 10333 10331 10329 10327 10325 10322 10320 10318 10316 10313 10311 10308 10305 10302 10299 10297 10294 10291 10286 10282 10278 10274 10270 10267 10263 10259 10254 10250 10247 10243 10239 10236 10232 10229 10227 10224 10222 10221 10219 10217 10214 10212 10210 10209 10208 10207 10205 10204 10203 10202 10201 10201 10201 10201 10201 10201
10328 10329 10330 10330 10330 10331 10331 10331 10331 10332 10332 10333 10333 10334 10334 10334 10333 10333 10333 10333 10332 10331 10330 10329 10327 10326 10326 10325 10323 10322 10320 10318 10316 10314 10312 10310 10307 10304 10302 10299 10296 10293 10290 10287 10284 10281 10276 10272 10268 10265 10261 10258 10255 10251 10247 10243 10239 10236 10233 10230 10226 10223 10220 10218 10216 10214 10212 10211 10208 10205 10203 10201 10201 10200 10198 10197 10195 10194 10194 10193 10193 10193 10193 10193 10194
10314 10315 10315 10315 10317 10317 10318 10318 10318 10319 10319 10319 10320 10320 10321 10320 10319 10319 10319 10319 10318 10318 10317 10316 10315 10314 10313 10312 10311 10309 10308 10306 10304 10303 10301 10299 10296 10294 10291 10288 10285 10281 10278 10275 10271 10267 10263 10260 10256 10253 10250 10247 10244 10240 10236 10233 10229 10226 10223 10220 10217 10215 10212 10210 10208 10205 10203 10202 10199 10196 10194 10193 10192 10191 10190 10189 10187 10186 10186 10186 10186 10186 10186 10186 10187
10300 10300 10301 10302 10303 10304 10304 10304 10305 10305 10305 10306 10306 10307 10307 10306 10306 10306 10306 10305 10304 10304 10303 10303 10302 10301 10300 10299 10298 10297 10295 10294 10292 10291 10289 10287 10285 10282 10280 10277 10274 10270 10266 10263 10259 10255 10252 10249 10246 10243 10240 10237 10234 10230 10226 10223 10220 10217 10214 10211 10209 10206 10204 10202 10200 10197 10195 10193 10191 10189 10187 10185 10184 10183 10183 10181 10180 10179 10179 10179 10179 10179 10179 10180 10180
10285 10286 10287 10288 10289 10290 10290 10291 10291 10292 10292 10292 10293 10293 10293 10293 10292 10293 10293 10292 10291 10291 10290 10290 10289 10288 10287 10286 10285 10284 10283 10281 10280 10278 10276 10275 10273 10270 10268 10265 10262 10258 10255 10251 10248 10244 10242 10239 10236 10233 10231 10228 10225 10221 10217 10214 10211 10208 10205 10202 10200 10198 10196 10193 10192 10189 10187 10185 10183 10182 10180 10178 10177 10176 10176 10174 10173 10172 10172 10172 10172 10173 10173 10173 10174
10270 10272 10273 10273 10274 10275 10276 10277 10277 10278 10278 10279 10279 10279 10279 10279 10279 10279 10279 10278 10278 10277 10277 10276 10276 10275 10274 10273 10272 10271 10270 10268 10267 10266 10264 10262 10260 10258 10256 10253 10250 10246 10243 10240 10237 10234 10232 10229 10227 10224 10222 10219 10217 10213 10209 10205 10202 10199 10196 10193 10191 10190 10188 10185 10183 10182 10180 10178 10176 10174 10173 10171 10170 10170 10169 10168 10167 10166 10166 10166 10166 10167 10167 10168 10168
10255 10257 10258 10258 10259 10260 10261 10262 10263 10264 10264 10265 10265 10265 10265 10265 10266 10266 10265 10265 10264 10264 10263 10263 10262 10262 10261 10260 10260 10259 10257 10256 10255 10253 10252 10251 10249 10247 10244 10241 10238 10235 10233 10230 10227 10225 10222 10220 10218 10215 10213 10210 10208 10205 10202 10198 10194 10191 10188 10185 10183 10182 10180 10178 10176 10174 10173 10171 10170 10168 10166 10165 10164 10163 10163 10162 10161 10160 10160 10160 10160 10161 10161 10162 10162
10241 10242 10243 10244 10246 10247 10247 10248 10249 10250 10250 10251 10251 10252 10252 10252 10252 10252 10252 10252 10251 10251 10251 10250 10250 10249 10249 10248 10247 10247 10246 10244 10243 10242 10241 10240 10238 10235 10233 10230 10227 10225 10223 10220 10218 10216 10213 10211 10209 10206 10204 10201 10199 10197 10194 10190 10187 10183 10180 10178 10176 10175 10173 10171 10169 10167 10165 10164 10163 10162 10160 10159 10158 10157 10157 10156 10155 10155 10155 10155 10155 10155 10156 10156 10156
10227 10228 10230 10232 10233 10234 10235 10235 10236 10237 10237 10238 10239 10239 10239 10240 10240 10240 10239 10239 10239 10239 10239 10239 10238 10238 10237 10237 10236 10235 10234 10233 10232 10231 10229 10228 10226 10224 10222 10220 10218 10216 10213 10211 10209 10207 10205 10203 10201 10198 10196 10193 10191 10189 10186 10183 10179 10176 10173 10171 10170 10168 10166 10165 10163 10161 10159 10158 10157 10156 10155 10153 10152 10151 10151 10150 10150 10149 10149 10149 10150 10150 10150 10151 10151
10215 10216 10218 10219 10220 10221 10222 10223 10223 10224 10225 10226 10226 10227 10227 10227 10227 10227 10227 10227 10228 10228 10227 10227 10227 10227 10226 10226 10225 10224 10223 10222 10221 10219 10218 10216 10215 10214 10212 10210 10209 10206 10204 10202 10200 10198 10196 10194 10192 10190 10188 10185 10183 10181 10179 10176 10172 10169 10166 10164 10163 10162 10160 10158 10157 10155 10153 10152 10151 10150 10149 10148 10147 10146 10145 10145 10144 10144 10144 10144 10144 10145 10145 10145 10146
10204 10205 10206 10207 10208 10209 10210 10211 10211 10212 10213 10214 10214 10215 10215 10215 10215 10215 10216 10216 10216 10216 10216 10216 10216 10216 10215 10215 10214 10213 10213 10212 10210 10209 10207 10206 10205 10204 10203 10201 10199 10197 10195 10193 10191 10190 10188 10186 10184 10182 10180 10178 10175 10173 10171 10168 10165 10163 10160 10157 10156 10155 10154 10152 10150 10149 10148 10147 10145 10144 10144 10143 10142 10141 10140 10140 10140 10139 10139 10139 10139 10139 10140 10140 10141
10194 10194 10195 10196 10197 10198 10199 10199 10200 10201 10202 10202 10202 10203 10203 10203 10204 10204 10204 10205 10205 10206 10206 10205 10205 10205 10205 10204 10204 10203 10202 10201 10200 10198 10197 10196 10195 10194 10193 10192 10190 10188 10186 10185 10183 10182 10181 10179 10177 10175 10173 10171 10169 10167 10164 10161 10159 10156 10154 10152 10150 10148 10148 10147 10145 10143 10142 10141 10140 10139 10138 10137 10137 10136 10136 10135 10135 10135 10135 10135 10135 10135 10135 10135 10136